Hourly Data Report for May 12, 2006

TORONTO CITY
ONTARIO

43°40'00.000" N
79°24'00.000" W
112.50 m
6158355
71508
XTO

Download Data

Hourly Data (May 2006)
Hourly Data Report for May 12, 2006
TIME
LST
Temp Definition
°C
Dew Point Definition
°C
Rel Hum Definition
%
Precip. Amount Definition
mm

Wind Dir Definition
10's deg

Wind Spd Definition
km/h
Visibility Definition
km
Stn Press Definition
kPa
Hmdx Definition


Wind Chill Definition


Weather Definition


00:00 11.7 11.6 99   LegendMM LegendMM   98.56     LegendNANA
01:00 12.1 12.0 99   LegendMM LegendMM   98.55     LegendNANA
02:00 11.9 11.8 99   LegendMM LegendMM   98.51     LegendNANA
03:00 11.2 11.0 99   LegendMM LegendMM   98.52     LegendNANA
04:00 10.9 10.8 99   LegendMM LegendMM   98.58     LegendNANA
05:00 10.4 10.3 99   LegendMM LegendMM   98.63     LegendNANA
06:00 10.4 10.1 98   LegendMM LegendMM   98.68     LegendNANA
07:00 11.7 10.4 92   LegendMM LegendMM   98.75     LegendNANA
08:00 11.9 9.6 86   LegendMM LegendMM   98.85     LegendNANA
09:00 12.7 9.8 82   LegendMM LegendMM   98.91     LegendNANA
10:00 13.5 9.9 79   LegendMM LegendMM   98.98     LegendNANA
11:00 12.6 8.9 78   LegendMM LegendMM   99.07     LegendNANA
12:00 15.0 10.1 72   LegendMM LegendMM   99.08     LegendNANA
13:00 15.9 9.7 67   LegendMM LegendMM   99.09     LegendNANA
14:00 16.9 10.6 66   LegendMM LegendMM   99.12     LegendNANA
15:00 13.8 8.5 70   LegendMM LegendMM   99.18     LegendNANA
16:00 14.9 9.0 68   LegendMM LegendMM   99.19     LegendNANA
17:00 15.4 9.1 66   LegendMM LegendMM   99.23     LegendNANA
18:00 14.9 8.6 66   LegendMM LegendMM   99.26     LegendNANA
19:00 14.0 9.3 73   LegendMM LegendMM   99.32     LegendNANA
20:00 13.8 9.5 75   LegendMM LegendMM   99.40     LegendNANA
21:00 12.8 10.0 83   LegendMM LegendMM   99.49     LegendNANA
22:00 12.3 10.0 86   LegendMM LegendMM   99.51     LegendNANA
23:00 11.5 9.6 88   LegendMM LegendMM   99.50     LegendNANA

Notes on Data Quality.

Legend

  • E = Estimated
  • M = Missing
  • NA = Not Available*
  • [empty] = Indicates an unobserved value
Date modified: